DW0148 Weather Reports


time (UTC)temp
F
wind
direction
speed
knots
gust
knots
rain 1hr
in
rain 24hr
in
rain mn
in
humidity
%
barometer
mb
20210723155821 84 276 0.9 7.8 0.00 0.00 0.00 66 1019.3
20210723155319 83 250 0.9 7.8 0.00 0.00 0.00 67 1019.3
20210723154818 82 162 0.0 7.8 0.00 0.00 0.00 69 1019.3
20210723154317 81 49 1.7 7.8 0.00 0.00 0.00 69 1019.3
20210723153815 82 336 1.7 7.0 0.00 0.00 0.00 70 1019.6
20210723153314 82 6 2.6 7.0 0.00 0.00 0.00 70 1019.6
20210723152809 82 12 1.7 4.3 0.00 0.00 0.00 71 1019.6
20210723152308 82 19 1.7 4.3 0.00 0.00 0.00 70 1019.6
20210723151806 81 24 1.7 4.3 0.00 0.00 0.00 70 1019.6
20210723151305 81 10 0.0 4.3 0.00 0.00 0.00 71 1019.6
20210723150803 82 75 0.9 5.2 0.00 0.00 0.00 69 1019.6
20210723150302 81 38 0.9 5.2 0.00 0.00 0.00 70 1019.6
20210723145758 80 89 0.9 5.2 0.00 0.00 0.00 71 1019.6
20210723145257 80 45 1.7 5.2 0.00 0.00 0.00 70 1019.6
20210723144756 80 21 1.7 5.2 0.00 0.00 0.00 70 1019.6
20210723144255 80 309 1.7 5.2 0.00 0.00 0.00 71 1019.6
20210723143754 80 351 1.7 5.2 0.00 0.00 0.00 71 1019.6
20210723143253 79 338 0.0 7.0 0.00 0.00 0.00 74 1019.6
20210723142752 79 305 0.9 7.0 0.00 0.00 0.00 73 1020.0
20210723142250 78 46 0.0 7.0 0.00 0.00 0.00 76 1019.6
20210723141749 78 359 2.6 7.0 0.00 0.00 0.00 74 1020.0
20210723141247 77 32 1.7 7.0 0.00 0.00 0.00 77 1020.0
20210723140746 77 358 2.6 7.0 0.00 0.00 0.00 76 1020.0
20210723140244 76 349 2.6 7.0 0.00 0.00 0.00 78 1020.0
20210723135743 76 341 1.7 7.0 0.00 0.00 0.00 79 1020.0
20210723135242 75 333 2.6 7.0 0.00 0.00 0.00 78 1020.0
20210723134741 75 343 2.6 9.6 0.00 0.00 0.00 79 1019.6
20210723134240 75 340 3.5 9.6 0.00 0.00 0.00 79 1020.0
20210723133738 75 339 3.5 9.6 0.00 0.00 0.00 80 1020.0
20210723133237 75 329 2.6 9.6 0.00 0.00 0.00 80 1020.0
20210723132736 75 4 3.5 5.2 0.00 0.00 0.00 83 1020.0
20210723132235 74 287 0.9 4.3 0.00 0.00 0.00 88 1019.6
20210723131733 74 341 1.7 4.3 0.00 0.00 0.00 90 1019.6
20210723131232 73 349 1.7 4.3 0.00 0.00 0.00 91 1019.6
20210723130730 73 346 1.7 4.3 0.00 0.00 0.00 92 1019.6
20210723130229 72 349 1.7 4.3 0.00 0.00 0.00 94 1019.6
20210723125728 72 2 2.6 4.3 0.00 0.00 0.00 95 1019.6
20210723125227 71 336 0.9 4.3 0.00 0.00 0.00 96 1019.6
20210723124725 71 345 1.7 4.3 0.00 0.00 0.00 97 1019.6
20210723124220 71 354 0.9 1.7 0.00 0.00 0.00 97 1019.6
20210723123719 70 23 0.0 0.0 0.00 0.00 0.00 97 1019.6
20210723123218 69 23 0.0 0.0 0.00 0.00 0.00 97 1019.3
20210723122716 69 23 0.0 0.0 0.00 0.00 0.00 97 1019.3
20210723122215 68 23 0.0 0.0 0.00 0.00 0.00 97 1019.3
20210723121714 68 23 0.0 0.0 0.00 0.00 0.00 97 1019.3
20210723121213 68 23 0.0 0.0 0.00 0.00 0.00 97 1019.3
20210723120711 67 23 0.0 0.0 0.00 0.00 0.00 97 1019.3
20210723120210 67 23 0.0 0.0 0.00 0.00 0.00 97 1019.3
20210723115709 67 23 0.0 0.0 0.00 0.00 0.00 97 1019.3
20210723115209 67 23 0.0 0.0 0.00 0.00 0.00 97 1019.3
20210723114706 66 23 0.0 0.0 0.00 0.00 0.00 97 1019.3
20210723114205 66 23 0.0 0.0 0.00 0.00 0.00 97 1019.3
20210723113704 66 23 0.0 0.0 0.00 0.00 0.00 97 1019.3
20210723113202 66 23 0.0 0.0 0.00 0.00 0.00 97 1019.0
20210723112701 66 23 0.0 0.0 0.00 0.00 0.00 97 1019.0
20210723112200 66 23 0.0 0.0 0.00 0.00 0.00 97 1019.0
20210723111659 66 23 0.0 0.0 0.00 0.00 0.00 97 1019.0
20210723111158 66 23 0.0 0.0 0.00 0.00 0.00 97 1019.0
20210723110657 66 23 0.0 0.0 0.00 0.00 0.00 97 1019.0
20210723110155 66 23 0.0 0.0 0.00 0.00 0.00 97 1019.0
20210723105654 66 23 0.0 0.0 0.00 0.00 0.00 97 1019.0
20210723105152 66 23 0.0 0.0 0.00 0.00 0.00 97 1019.0
20210723104652 66 23 0.0 0.0 0.00 0.00 0.00 97 1019.0
20210723104151 66 23 0.0 0.0 0.00 0.00 0.00 96 1019.0
20210723103649 66 23 0.0 0.0 0.00 0.00 0.00 97 1019.0
20210723103148 66 23 0.0 0.0 0.00 0.00 0.00 97 1018.6
20210723102646 66 23 0.0 0.0 0.00 0.00 0.00 97 1018.6
20210723102141 66 23 0.0 0.0 0.00 0.00 0.00 96 1018.6
20210723101639 66 23 0.0 0.0 0.00 0.00 0.00 96 1018.6
20210723101136 66 23 0.0 0.0 0.00 0.00 0.00 96 1018.6
20210723100635 66 23 0.0 0.0 0.00 0.00 0.00 96 1018.6
20210723100131 66 23 0.0 0.0 0.00 0.00 0.00 96 1018.6
20210723095630 66 23 0.0 0.0 0.00 0.00 0.00 96 1018.6
20210723095128 66 23 0.0 0.0 0.00 0.00 0.00 96 1018.6
20210723094628 66 23 0.0 0.0 0.00 0.00 0.00 96 1018.6
20210723094127 66 23 0.0 0.0 0.00 0.00 0.00 96 1018.6
20210723093625 66 23 0.0 0.0 0.00 0.00 0.00 96 1018.3
20210723093124 66 23 0.0 0.0 0.00 0.00 0.00 96 1018.3
20210723092623 66 23 0.0 0.0 0.00 0.00 0.00 96 1018.3
20210723092122 66 23 0.0 0.0 0.00 0.00 0.00 96 1018.3
20210723091618 66 23 0.0 0.0 0.00 0.00 0.00 96 1018.3
20210723091116 66 23 0.0 0.0 0.00 0.00 0.00 96 1018.3
20210723090614 66 23 0.0 0.0 0.00 0.00 0.00 96 1018.3
20210723090113 66 23 0.0 0.0 0.00 0.00 0.00 96 1018.3
20210723085612 66 23 0.0 0.0 0.00 0.00 0.00 96 1018.3
20210723085110 66 23 0.0 0.0 0.00 0.00 0.00 96 1018.3
20210723084609 66 23 0.0 0.0 0.00 0.00 0.00 96 1018.3
20210723084108 66 23 0.0 0.0 0.00 0.00 0.00 96 1018.3
20210723083607 66 23 0.0 0.0 0.00 0.00 0.00 96 1018.3
20210723083106 66 23 0.0 0.0 0.00 0.00 0.00 96 1018.3
20210723082604 66 23 0.0 0.0 0.00 0.00 0.00 96 1018.3
20210723082103 66 23 0.0 0.0 0.00 0.00 0.00 96 1017.9
20210723081601 66 23 0.0 0.0 0.00 0.00 0.00 96 1018.3
20210723081055 66 23 0.0 0.0 0.00 0.00 0.00 96 1018.3
20210723080555 66 23 0.0 0.0 0.00 0.00 0.00 96 1018.3
20210723080053 66 23 0.0 0.0 0.00 0.00 0.00 96 1017.9
20210723075553 66 23 0.0 0.0 0.00 0.00 0.00 96 1018.3
20210723075051 66 23 0.0 0.0 0.00 0.00 0.00 96 1018.3
20210723074550 66 23 0.0 0.0 0.00 0.00 0.00 96 1018.3
20210723074049 66 23 0.0 0.0 0.00 0.00 0.00 96 1018.3
20210723073548 66 23 0.0 0.0 0.00 0.00 0.00 96 1018.3
20210723073047 66 23 0.0 0.0 0.00 0.00 0.00 96 1018.3
20210723072547 66 23 0.0 0.0 0.00 0.00 0.00 96 1018.3
20210723072046 66 23 0.0 0.0 0.00 0.00 0.00 96 1018.3
20210723071545 66 23 0.0 0.0 0.00 0.00 0.00 96 1018.3
20210723071044 66 23 0.0 0.0 0.00 0.00 0.00 96 1018.3
20210723070542 66 23 0.0 0.0 0.00 0.00 0.00 96 1018.3
20210723070042 66 23 0.0 0.0 0.00 0.00 0.00 96 1018.6
20210723065541 66 23 0.0 0.0 0.00 0.00 0.00 96 1018.6
20210723065039 67 23 0.0 0.0 0.00 0.00 0.00 95 1018.6
20210723064533 67 23 0.0 0.0 0.00 0.00 0.00 96 1018.6
20210723064032 67 23 0.0 0.0 0.00 0.00 0.00 96 1018.6
20210723063530 67 23 0.0 0.0 0.00 0.00 0.00 96 1018.6
20210723063029 67 23 0.0 0.0 0.00 0.00 0.00 96 1018.6
20210723062528 67 23 0.0 0.0 0.00 0.00 0.00 95 1018.6
20210723062026 67 23 0.0 0.0 0.00 0.00 0.00 95 1018.6
20210723061525 67 23 0.0 0.0 0.00 0.00 0.00 95 1018.6
20210723061023 67 23 0.0 0.0 0.00 0.00 0.00 95 1018.6
20210723060522 67 23 0.0 0.0 0.00 0.00 0.00 95 1018.6
20210723060021 67 23 0.0 0.0 0.00 0.00 0.00 95 1019.0
20210723055520 67 23 0.0 0.0 0.00 0.00 0.00 95 1019.0
20210723055018 67 23 0.0 0.0 0.00 0.00 0.00 95 1019.0
20210723054517 67 23 0.0 0.0 0.00 0.00 0.00 95 1019.0
20210723054016 68 23 0.0 0.0 0.00 0.00 0.00 95 1019.0
20210723053514 68 23 0.0 0.0 0.00 0.00 0.00 95 1019.0
20210723053013 68 23 0.0 0.0 0.00 0.00 0.00 95 1019.0
20210723052512 68 23 0.0 0.0 0.00 0.00 0.00 95 1019.0
20210723052010 68 23 0.0 0.0 0.00 0.00 0.00 95 1019.3
20210723051509 68 23 0.0 0.0 0.00 0.00 0.00 95 1019.3
20210723051008 68 23 0.0 0.0 0.00 0.00 0.00 95 1019.3
20210723050507 68 23 0.0 0.0 0.00 0.00 0.00 95 1019.3
20210723050006 68 23 0.0 0.0 0.00 0.00 0.00 95 1019.3
20210723045504 68 23 0.0 0.0 0.00 0.00 0.00 94 1019.3
20210723045002 69 23 0.0 0.0 0.00 0.00 0.00 94 1019.3
20210723044501 69 23 0.0 0.0 0.00 0.00 0.00 94 1019.3
20210723044000 69 23 0.0 0.0 0.00 0.00 0.00 94 1019.3
20210723043459 69 23 0.0 0.0 0.00 0.00 0.00 94 1019.0
20210723042958 69 23 0.0 0.0 0.00 0.00 0.00 94 1019.3
20210723042458 69 23 0.0 0.0 0.00 0.00 0.00 94 1019.0
20210723041956 69 23 0.0 0.0 0.00 0.00 0.00 94 1019.0
20210723041454 69 23 0.0 0.0 0.00 0.00 0.00 94 1019.0
20210723040952 69 23 0.0 0.0 0.00 0.00 0.00 94 1019.0
20210723040451 70 23 0.0 0.0 0.00 0.00 0.00 94 1019.3
20210723035950 70 23 0.0 0.0 0.00 0.00 0.00 94 1019.3
20210723035449 70 23 0.0 0.0 0.00 0.00 0.00 94 1019.3
20210723034948 70 23 0.0 0.0 0.00 0.00 0.00 93 1019.3
20210723034447 70 23 0.0 0.0 0.00 0.00 0.00 93 1019.3
20210723033945 70 23 0.0 0.0 0.00 0.00 0.00 94 1019.3
20210723033444 70 23 0.0 0.0 0.00 0.00 0.00 94 1019.3
20210723032943 70 23 0.0 0.0 0.00 0.00 0.00 94 1019.3
20210723032442 70 23 0.0 0.0 0.00 0.00 0.00 93 1019.3
20210723031941 70 23 0.0 0.0 0.00 0.00 0.00 93 1019.3
20210723031440 70 23 0.0 0.0 0.00 0.00 0.00 93 1019.3
20210723030939 70 23 0.0 0.0 0.00 0.00 0.00 93 1019.3
20210723030437 71 23 0.0 0.0 0.00 0.00 0.00 93 1019.3
20210723025936 71 23 0.0 0.0 0.00 0.00 0.00 93 1019.0
20210723025435 71 23 0.0 0.0 0.00 0.00 0.00 93 1019.0
20210723024931 71 23 0.0 0.0 0.00 0.00 0.00 93 1019.0
20210723024429 71 23 0.0 0.0 0.00 0.00 0.00 93 1019.0
20210723023928 71 23 0.0 0.0 0.00 0.00 0.00 93 1019.0
20210723023427 71 23 0.0 0.0 0.00 0.00 0.00 92 1019.0
20210723022927 71 23 0.0 0.0 0.00 0.00 0.00 92 1019.0
20210723022418 71 23 0.0 0.0 0.00 0.00 0.00 92 1019.0
20210723021917 71 23 0.0 0.0 0.00 0.00 0.00 92 1019.0
20210723021416 71 23 0.0 0.0 0.00 0.00 0.00 92 1019.0
20210723020915 72 23 0.0 0.0 0.00 0.00 0.00 92 1018.6
20210723020414 72 23 0.0 0.0 0.00 0.00 0.00 92 1018.6
20210723015912 72 23 0.0 0.0 0.00 0.00 0.00 91 1018.6
20210723015411 72 23 0.0 0.0 0.00 0.00 0.00 91 1018.6
20210723014910 72 23 0.0 0.0 0.00 0.00 0.00 91 1018.6
20210723014407 72 23 0.0 0.0 0.00 0.00 0.00 91 1018.6
20210723013906 73 23 0.0 0.0 0.00 0.00 0.00 91 1018.6
20210723013404 73 23 0.0 0.0 0.00 0.00 0.00 90 1018.6
20210723012903 73 23 0.0 0.0 0.00 0.00 0.00 90 1018.6
20210723012401 73 23 0.0 0.0 0.00 0.00 0.00 90 1018.6
20210723011855 74 23 0.0 0.0 0.00 0.00 0.00 90 1018.3
20210723011354 74 23 0.0 0.0 0.00 0.00 0.00 89 1018.3
20210723010852 74 23 0.0 0.0 0.00 0.00 0.00 89 1018.3
20210723010350 75 23 0.0 0.0 0.00 0.00 0.00 88 1018.3
20210723005848 75 23 0.0 0.0 0.00 0.00 0.00 88 1018.3
20210723005346 75 23 0.0 0.0 0.00 0.00 0.00 88 1018.3
20210723004844 76 23 0.0 0.0 0.00 0.00 0.00 87 1018.3
20210723004338 76 23 0.0 0.0 0.00 0.00 0.00 87 1018.3
20210723003837 77 23 0.0 0.0 0.00 0.00 0.00 87 1018.3
20210723003335 77 23 0.0 0.0 0.00 0.00 0.00 86 1017.9
20210723002834 77 23 0.0 0.0 0.00 0.00 0.00 86 1017.9
20210723002331 78 23 0.0 0.0 0.00 0.00 0.00 86 1017.9
20210723001829 78 23 0.0 0.0 0.00 0.00 0.00 85 1017.9
20210723001321 78 23 0.0 0.0 0.00 0.00 0.00 84 1017.9
20210723000810 78 23 0.0 0.0 0.00 0.00 0.00 84 1017.6
20210723000258 79 23 0.0 0.0 0.00 0.00 0.00 84 1017.6
20210722235747 79 23 0.0 0.0 0.00 0.00 0.00 83 1017.6
20210722235238 80 23 0.0 0.0 0.00 0.00 0.00 83 1017.6
20210722234723 80 23 0.0 1.7 0.00 0.00 0.00 82 1017.6
20210722234222 80 23 0.0 1.7 0.00 0.00 0.00 80 1017.6
20210722233714 81 23 0.0 1.7 0.00 0.00 0.00 80 1017.6
20210722233213 82 23 0.9 1.7 0.00 0.00 0.00 79 1017.6
20210722232707 82 17 0.9 1.7 0.00 0.00 0.00 78 1017.6
20210722232205 83 309 0.0 0.0 0.00 0.00 0.00 78 1017.6
20210722231704 83 309 0.0 0.0 0.00 0.00 0.00 77 1017.3
20210722231203 84 309 0.0 0.0 0.00 0.00 0.00 75 1017.3
20210722230702 84 309 0.0 0.0 0.00 0.00 0.00 73 1017.3
20210722230200 84 309 0.0 1.7 0.00 0.00 0.00 72 1017.3
20210722225658 84 309 0.0 4.3 0.00 0.00 0.00 70 1017.3
20210722225156 84 309 0.0 4.3 0.00 0.00 0.00 67 1017.3
20210722224655 84 309 0.0 4.3 0.00 0.00 0.00 65 1017.3
20210722224154 84 331 0.9 4.3 0.00 0.00 0.00 61 1017.3
20210722223653 84 335 0.9 2.6 0.00 0.00 0.00 65 1017.3
20210722223152 85 337 0.9 4.3 0.00 0.00 0.00 65 1017.3
20210722222651 85 338 0.9 5.2 0.00 0.00 0.00 64 1017.3
20210722222150 85 339 0.9 5.2 0.00 0.00 0.00 62 1017.6
20210722221649 85 307 1.7 5.2 0.00 0.00 0.00 60 1017.6
20210722221148 85 333 2.6 5.2 0.00 0.00 0.00 61 1017.6
20210722220647 86 355 2.6 5.2 0.00 0.00 0.00 61 1017.6
20210722220146 86 321 1.7 2.6 0.00 0.00 0.00 61 1017.6
20210722215645 87 333 0.9 2.6 0.00 0.00 0.00 60 1017.6
20210722215144 87 7 1.7 2.6 0.00 0.00 0.00 59 1017.6
20210722214643 88 297 0.9 1.7 0.00 0.00 0.00 57 1017.6
20210722214141 88 294 0.9 2.6 0.00 0.00 0.00 59 1017.6
20210722213640 88 294 0.9 2.6 0.00 0.00 0.00 59 1017.6
20210722213139 88 294 0.0 4.3 0.00 0.00 0.00 58 1017.6
20210722212638 88 299 0.9 4.3 0.00 0.00 0.00 58 1017.6
20210722212137 88 353 0.9 4.3 0.00 0.00 0.00 58 1017.6
20210722211636 89 39 1.7 4.3 0.00 0.00 0.00 58 1017.6
20210722211135 89 78 0.9 1.7 0.00 0.00 0.00 58 1017.6
20210722210633 88 131 0.0 2.6 0.00 0.00 0.00 55 1017.6
20210722210132 88 300 0.9 4.3 0.00 0.00 0.00 59 1017.6
20210722205631 87 317 0.0 7.0 0.00 0.00 0.00 61 1017.9
20210722205130 87 333 0.9 7.0 0.00 0.00 0.00 58 1017.9
20210722204629 87 24 0.9 7.0 0.00 0.00 0.00 59 1017.9
20210722204128 87 333 1.7 7.0 0.00 0.00 0.00 59 1017.9
20210722203627 87 315 0.9 7.0 0.00 0.00 0.00 63 1017.9
20210722203126 87 359 2.6 7.0 0.00 0.00 0.00 57 1017.9
20210722202624 87 316 0.9 10.4 0.00 0.00 0.00 59 1017.9
20210722202123 87 341 1.7 10.4 0.00 0.00 0.00 59 1017.9
20210722201621 87 350 2.6 10.4 0.00 0.00 0.00 59 1017.9
20210722201120 87 351 4.3 10.4 0.00 0.00 0.00 60 1017.9
20210722200619 87 6 1.7 7.0 0.00 0.00 0.00 61 1017.9
20210722200118 87 357 1.7 5.2 0.00 0.00 0.00 61 1017.9
20210722195617 87 350 2.6 7.0 0.00 0.00 0.00 61 1017.9
20210722195116 87 341 3.5 7.0 0.00 0.00 0.00 59 1017.9
20210722194615 87 339 1.7 7.0 0.00 0.00 0.00 60 1017.9
20210722194114 87 336 3.5 7.0 0.00 0.00 0.00 60 1017.9
20210722193613 87 343 1.7 5.2 0.00 0.00 0.00 62 1017.9
20210722193111 87 284 0.9 9.6 0.00 0.00 0.00 62 1017.9
20210722192610 87 349 2.6 9.6 0.00 0.00 0.00 60 1017.9
20210722192109 86 346 1.7 9.6 0.00 0.00 0.00 62 1017.9
20210722191604 86 333 1.7 9.6 0.00 0.00 0.00 60 1017.9
20210722191102 86 337 3.5 9.6 0.00 0.00 0.00 60 1018.3
20210722190601 86 340 3.5 10.4 0.00 0.00 0.00 64 1018.3
20210722190100 86 349 2.6 10.4 0.00 0.00 0.00 61 1018.3
20210722185559 86 353 2.6 7.0 0.00 0.00 0.00 62 1018.3
20210722185058 86 24 1.7 9.6 0.00 0.00 0.00 63 1018.3
20210722184557 85 87 0.9 9.6 0.00 0.00 0.00 66 1018.3
20210722184056 85 55 1.7 9.6 0.00 0.00 0.00 64 1018.3
20210722183555 86 332 4.3 9.6 0.00 0.00 0.00 61 1018.3
20210722183054 86 53 1.7 9.6 0.00 0.00 0.00 63 1018.6
20210722182553 86 348 3.5 9.6 0.00 0.00 0.00 63 1018.6
20210722182051 87 56 2.6 5.2 0.00 0.00 0.00 61 1018.6
20210722181550 87 324 0.9 5.2 0.00 0.00 0.00 60 1018.6
20210722181049 87 11 1.7 5.2 0.00 0.00 0.00 60 1018.6
20210722180544 87 147 1.7 4.3 0.00 0.00 0.00 62 1018.6
20210722180043 87 150 0.0 4.3 0.00 0.00 0.00 62 1019.0
20210722175542 87 176 1.7 4.3 0.00 0.00 0.00 61 1019.0
20210722175041 87 171 1.7 4.3 0.00 0.00 0.00 62 1019.0
20210722174539 88 202 1.7 4.3 0.00 0.00 0.00 62 1019.0
20210722174038 88 225 0.9 2.6 0.00 0.00 0.00 64 1019.0
20210722173537 87 157 1.7 2.6 0.00 0.00 0.00 61 1019.0
20210722173035 87 155 0.9 2.6 0.00 0.00 0.00 63 1019.0
20210722172535 87 152 0.9 2.6 0.00 0.00 0.00 66 1019.0
20210722172033 87 238 0.9 2.6 0.00 0.00 0.00 66 1019.3
20210722171532 87 172 0.9 2.6 0.00 0.00 0.00 66 1019.3
20210722171031 87 267 0.9 2.6 0.00 0.00 0.00 67 1019.3
20210722170530 87 195 0.9 2.6 0.00 0.00 0.00 67 1019.3
20210722170029 87 180 0.9 2.6 0.00 0.00 0.00 70 1019.3
20210722165528 87 155 0.9 2.6 0.00 0.00 0.00 66 1019.3
20210722165027 87 159 0.0 2.6 0.00 0.00 0.00 68 1019.6
20210722164526 86 189 0.0 2.6 0.00 0.00 0.00 67 1019.6
20210722164026 86 169 0.9 2.6 0.00 0.00 0.00 66 1019.6
20210722163523 86 208 0.9 2.6 0.00 0.00 0.00 68 1019.6
20210722163022 86 193 0.9 2.6 0.00 0.00 0.00 70 1019.6
20210722162520 85 248 0.0 2.6 0.00 0.00 0.00 69 1019.6
20210722162019 85 160 0.9 4.3 0.00 0.00 0.00 69 1019.6
20210722161519 85 164 1.7 4.3 0.00 0.00 0.00 71 1019.6
20210722161013 84 293 0.9 4.3 0.00 0.00 0.00 72 1019.6
20210722160512 84 164 1.7 4.3 0.00 0.00 0.00 71 1020.0